Theta_e
311 313 314 314 314 313 312 312 312 313 313 315 315 315 314 314 315 323 329 321 317 313 322 325 323 323 323 325 329 330 335 340 338 337 340 342 343 344 343 343 341 341 342 346 346
312 313 314 314 314 313 312 311 311 313 314 315 315 315 315 315 324 329 323 320 314 314 324 325 323 323 325 326 328 330 337 337 334 335 340 341 344 344 345 343 344 343 345 347 345
312 314 314 314 313 313 312 311 311 313 314 316 316 315 316 317 331 327 313 312 313 315 323 323 322 324 325 327 328 329 334 333 333 332 336 341 343 342 343 342 343 344 346 346 344
313 314 314 314 313 313 312 312 311 313 314 316 317 316 316 325 333 326 312 315 314 321 322 321 322 323 325 326 328 329 334 332 331 333 337 341 343 342 342 339 341 341 341 342 342
313 314 314 314 313 313 313 312 312 313 315 316 317 316 321 330 327 321 314 317 317 320 321 321 322 323 325 327 328 329 334 332 331 331 338 341 342 343 342 340 341 339 338 338 338
313 314 314 314 313 313 312 312 312 314 315 316 316 317 329 326 328 322 320 319 320 319 320 321 322 323 325 327 328 329 332 332 331 332 334 341 342 343 343 341 341 338 338 337 337
313 314 314 314 313 313 313 312 313 314 316 317 316 320 327 325 326 322 321 321 320 319 321 321 323 324 325 326 327 329 330 331 331 334 334 335 342 343 344 343 341 339 338 337 337
314 314 314 314 313 313 311 312 314 315 316 317 319 324 328 321 325 327 325 323 320 319 320 321 323 324 325 327 326 327 329 332 332 335 335 333 343 341 343 344 342 340 338 338 338
314 314 315 314 313 313 311 314 316 316 315 317 323 329 327 320 325 327 323 322 319 319 320 321 322 323 325 326 326 327 330 332 333 334 339 338 340 340 341 343 343 341 340 338 339
314 314 315 313 313 312 311 316 317 316 320 323 323 325 324 323 326 325 321 322 319 320 321 322 323 323 324 324 325 328 330 332 332 334 338 337 339 343 341 341 343 342 341 341 341
314 314 315 314 313 312 316 319 321 325 321 322 323 322 323 323 322 325 324 322 321 320 322 323 324 323 324 324 325 328 330 331 332 333 336 338 337 338 341 341 342 343 342 342 342
314 315 314 314 313 314 317 318 316 315 319 321 321 322 321 321 323 324 324 323 323 321 323 325 324 325 324 325 324 325 327 330 331 331 335 337 337 336 337 340 340 340 342 342 342
314 315 314 314 313 317 318 314 313 315 322 324 321 321 322 322 323 324 326 325 325 324 324 326 326 325 324 324 324 325 326 329 330 330 330 333 336 337 336 336 339 340 340 340 342
314 315 314 313 316 318 318 314 312 318 326 326 322 321 321 322 323 325 325 327 327 326 325 325 325 323 324 323 324 323 324 325 328 331 330 330 334 336 337 336 335 336 336 338 340
315 315 314 313 318 319 317 315 312 320 332 325 324 322 321 322 323 324 325 327 327 327 325 326 324 322 323 323 324 324 324 324 325 329 329 330 331 330 331 331 331 331 331 333 336
315 315 314 319 319 319 316 314 316 325 326 326 324 322 320 321 324 324 326 326 327 328 325 325 323 323 323 323 323 324 324 324 325 325 326 329 331 332 331 331 330 331 330 331 332
315 315 314 316 320 317 315 315 322 324 322 325 324 323 320 321 323 325 326 326 327 328 328 327 325 323 323 323 324 325 326 328 327 325 325 326 328 331 331 331 331 331 330 330 331
315 315 317 317 317 316 317 317 322 321 321 324 323 323 324 322 323 323 325 326 326 326 327 328 327 324 323 324 326 326 327 330 333 332 330 329 327 327 329 329 328 329 329 329 330
315 316 318 318 316 319 320 317 321 321 321 322 324 325 325 324 323 323 324 325 325 325 328 327 328 324 323 323 324 327 328 328 330 330 331 330 331 329 329 329 329 329 330 331 334
317 319 319 318 319 320 319 318 319 318 319 322 326 325 326 324 324 324 324 324 324 324 326 328 330 325 325 325 325 326 329 331 329 331 333 332 332 331 331 330 329 330 330 336 344
317 322 319 317 318 321 319 317 318 318 318 322 326 326 327 325 325 324 327 329 326 324 325 327 328 328 326 326 326 327 326 327 329 330 333 334 332 331 331 331 331 330 331 334 345
318 322 318 316 319 320 319 317 314 318 318 321 323 326 327 326 326 326 329 330 329 328 327 327 330 329 329 327 327 327 328 330 331 332 331 330 330 330 330 330 331 331 332 339 348
321 320 316 317 321 319 318 318 318 318 319 320 322 325 327 327 329 328 334 332 332 330 333 331 329 331 329 329 328 326 328 329 330 334 335 333 331 330 331 332 335 334 337 341 349
320 320 321 320 321 324 320 319 320 319 319 319 323 324 326 328 331 331 332 330 330 331 328 333 334 333 336 337 334 332 330 329 331 334 333 332 331 330 333 337 338 342 344 345 351
319 319 320 320 320 322 323 320 319 319 319 320 322 323 327 328 328 331 330 329 327 328 330 333 332 329 328 327 328 327 329 328 330 332 332 331 330 330 333 337 339 344 347 348 351
319 319 319 323 320 322 320 323 320 320 321 321 322 322 326 329 328 330 330 329 328 326 330 330 331 329 329 324 324 325 325 326 328 329 330 330 330 337 338 339 342 346 348 350 352
317 319 324 322 324 322 323 323 323 322 322 322 321 322 322 328 326 328 328 328 329 330 331 331 331 331 328 325 326 327 327 329 331 331 331 336 342 340 341 341 346 346 353 351 347
Wind_Speed
12 15 17 20 22 23 26 27 27 26 25 26 25 22 17 14 11 4 9 2 11 16 15 14 12 14 14 15 12 12 12 10 5 4 12 13 11 7 8 9 3 6 2 22 21
13 16 19 21 23 25 27 28 28 26 25 25 24 19 16 14 9 16 3 8 11 22 16 17 14 14 13 15 9 13 13 5 9 6 1 11 10 11 9 8 9 6 15 22 22
13 16 19 22 24 25 28 30 29 25 25 24 22 16 15 10 10 5 3 9 14 23 16 15 13 13 16 12 14 15 16 10 6 3 6 9 10 10 9 11 12 13 14 18 19
14 17 19 22 24 27 28 31 28 26 25 21 18 13 15 6 2 6 8 13 18 17 16 14 11 15 16 15 14 15 14 1 6 3 6 6 14 6 3 8 13 16 17 17 18
15 17 20 22 24 26 30 30 28 26 24 18 14 12 8 9 3 7 13 16 16 11 15 14 15 16 16 14 14 14 14 7 4 3 7 4 10 7 6 7 15 17 17 17 16
15 17 20 23 25 27 30 29 27 25 22 15 11 12 7 14 6 12 15 16 13 14 16 15 11 17 12 13 13 15 17 8 6 7 8 10 8 5 11 9 16 17 17 16 16
15 17 20 23 26 29 30 27 26 24 18 11 9 8 12 3 4 12 14 14 12 13 12 14 10 8 13 10 12 12 14 13 11 11 7 12 14 13 15 12 16 16 16 16 15
15 17 19 22 26 29 28 26 27 20 14 9 8 8 10 4 6 11 13 12 9 10 10 9 7 12 14 12 9 14 15 16 16 9 8 13 18 18 13 14 16 16 15 16 17
15 16 18 21 25 28 27 23 22 11 9 7 7 10 7 8 11 12 12 11 11 11 8 5 11 14 14 12 13 15 14 18 11 10 8 15 11 17 16 15 15 16 16 16 17
16 16 17 20 24 23 26 26 16 9 5 7 11 8 8 10 11 12 11 8 13 13 12 13 10 11 12 15 15 18 19 17 15 14 10 14 15 19 14 16 14 16 16 16 17
16 16 17 18 22 19 24 18 4 6 10 15 6 10 4 7 9 12 14 13 15 14 15 16 13 14 19 18 19 13 14 20 9 8 17 17 15 11 17 14 15 16 16 17 18
15 15 16 17 19 12 15 7 6 7 11 15 14 12 8 1 11 14 17 13 13 16 17 11 15 15 14 8 13 12 16 16 13 14 8 16 17 16 17 16 15 14 15 17 18
14 14 15 16 12 7 6 6 8 9 8 7 10 16 14 14 13 17 18 18 13 17 17 16 7 15 4 10 12 15 18 15 18 10 13 17 19 15 13 11 15 15 14 18 19
13 12 13 15 8 9 4 9 10 6 6 13 12 10 11 15 14 14 22 15 11 14 12 13 15 6 10 14 12 15 15 17 18 12 11 18 15 17 17 17 17 13 15 17 19
13 11 10 9 12 9 7 11 10 6 6 15 11 11 14 17 14 12 19 15 14 10 4 14 11 11 14 15 13 14 12 11 17 15 15 23 13 14 12 19 18 19 20 18 19
13 11 10 5 9 8 10 11 7 7 6 8 10 13 17 20 12 20 15 10 10 9 13 9 4 10 17 12 6 10 9 11 15 16 18 20 20 14 13 16 16 19 18 22 20
13 11 10 9 9 9 11 8 7 10 6 9 15 15 19 15 15 14 19 17 11 9 13 14 13 10 10 11 10 11 11 10 11 12 16 19 21 19 19 19 15 15 16 19 18
13 13 11 12 10 10 10 8 9 10 8 5 1 9 14 19 17 17 19 16 17 15 15 13 14 16 10 14 11 15 14 12 13 12 13 22 20 17 16 8 9 18 18 15 13
11 14 15 13 9 7 7 11 11 12 5 3 12 11 14 14 11 15 15 17 17 12 13 6 5 4 6 12 13 12 15 16 17 17 14 13 11 4 10 9 11 16 15 12 10
12 15 19 12 8 8 8 16 15 1 4 9 13 15 15 14 12 13 14 9 6 13 11 5 4 9 9 9 10 14 6 9 9 14 15 14 12 10 11 10 9 11 8 3 7
12 7 11 11 9 7 11 16 16 4 5 8 8 6 11 17 15 16 14 8 5 12 8 9 8 9 8 11 15 8 12 12 12 10 12 9 7 13 12 10 11 13 14 13 9
16 11 12 15 9 10 13 18 5 7 10 7 6 10 5 3 13 13 9 6 3 6 13 7 5 11 12 3 5 9 13 9 7 9 11 11 13 17 9 5 11 15 16 11 8
9 7 8 12 10 12 13 10 8 12 11 9 7 6 5 9 7 4 13 6 6 7 3 5 6 9 13 11 10 9 9 7 4 7 13 11 9 9 12 11 11 10 11 9 4
9 7 6 7 12 11 14 12 15 12 11 8 5 4 8 5 6 8 13 5 5 5 4 2 3 11 7 5 9 6 5 6 4 6 11 11 10 10 11 15 14 16 13 8 5
4 9 7 11 12 11 10 9 14 11 12 13 9 10 10 9 12 13 14 11 9 6 4 3 6 10 11 8 11 11 11 10 12 12 12 14 16 14 18 5 8 8 7 4 4
5 4 3 3 11 12 8 12 14 14 13 13 12 12 5 8 8 11 14 12 9 8 5 2 5 7 12 14 13 13 11 11 13 14 15 14 13 18 16 16 20 11 11 2 19
2 7 6 9 9 11 12 13 12 9 11 12 17 13 10 9 3 7 6 5 4 4 5 3 6 4 12 11 2 10 7 5 7 11 13 12 18 18 16 15 11 10 14 16 16
Wind_Direction
339 341 343 344 345 345 344 342 342 341 336 336 334 333 335 330 320 244 233 260 194 188 169 180 203 213 228 234 239 242 262 220 141 189 106 125 134 96 84 127 93 62 275 141 152
333 336 342 341 342 343 343 341 341 337 335 333 330 332 331 326 274 247 204 225 193 175 185 186 196 200 211 223 214 238 240 65 27 19 187 137 147 118 178 140 117 118 95 131 159
329 332 337 339 340 341 340 339 339 334 334 331 329 329 328 332 266 97 152 179 180 176 200 203 206 206 223 221 214 227 262 93 146 46 286 138 135 117 229 168 137 144 145 153 167
324 329 334 336 336 338 338 337 337 333 331 329 329 325 322 268 317 92 147 162 164 180 220 214 228 210 228 212 220 248 254 270 79 124 209 203 113 138 302 40 101 141 153 160 171
315 324 329 331 335 337 335 335 332 329 327 326 326 320 320 238 63 140 155 159 171 206 210 207 210 212 221 209 216 226 252 219 200 236 249 178 151 164 164 101 123 144 155 164 175
311 319 325 329 333 334 333 331 327 324 321 317 318 320 264 265 96 145 158 169 191 210 212 213 214 219 254 238 222 216 265 212 229 237 199 236 159 179 141 142 140 157 165 171 180
305 313 322 329 331 332 332 328 323 319 314 305 303 310 270 302 132 164 178 195 206 212 216 218 241 203 230 243 240 261 247 239 237 232 212 240 191 187 143 163 155 170 172 174 189
299 310 319 325 328 331 331 326 320 311 306 285 286 279 275 119 181 182 189 196 205 214 230 204 241 245 259 242 219 226 239 236 219 198 203 214 217 173 151 172 168 180 179 181 190
293 305 316 324 328 331 329 323 317 307 292 267 261 225 238 147 192 186 194 195 195 197 212 197 230 230 215 242 226 212 225 230 193 195 208 215 224 181 163 186 175 185 185 193 188
288 302 313 324 330 337 331 320 289 280 257 251 262 259 216 205 152 175 191 232 189 185 192 210 215 220 235 215 224 211 223 224 241 167 229 213 258 139 171 185 192 187 196 197 197
284 300 312 325 330 342 338 318 270 194 265 284 313 260 127 126 166 192 189 203 194 194 206 207 217 215 219 225 244 251 257 224 225 215 191 238 223 183 168 203 208 188 197 205 207
281 297 312 324 331 340 328 12 31 332 297 277 255 242 280 240 194 190 180 202 195 206 214 185 233 239 236 252 242 277 259 268 241 201 208 230 244 238 185 195 218 210 202 209 207
276 294 309 323 320 299 336 9 324 316 264 272 211 220 201 207 222 178 194 217 200 216 200 228 234 224 191 222 241 238 246 240 259 178 231 253 246 234 244 259 210 217 230 211 212
268 286 307 321 284 330 264 336 324 319 268 160 188 200 183 200 218 189 197 209 212 230 207 233 253 243 210 239 224 244 226 255 260 243 223 223 254 235 226 239 249 249 233 238 225
260 277 297 325 309 300 342 320 322 258 258 152 133 132 182 202 171 195 191 219 235 215 217 225 222 196 225 230 227 255 286 235 254 256 252 262 229 264 252 213 229 242 250 236 233
249 268 292 272 256 270 311 307 272 233 243 154 144 177 180 209 175 163 189 239 255 218 225 281 228 221 237 241 242 262 249 252 251 245 245 246 260 241 234 240 223 241 244 253 239
239 258 267 279 275 317 310 266 232 245 114 156 180 171 184 187 191 171 190 199 205 204 221 217 202 228 258 205 200 231 224 225 220 225 247 248 246 252 262 271 257 246 254 270 266
238 253 268 241 266 290 280 235 248 212 224 42 270 192 199 177 201 192 194 205 218 221 269 202 202 196 188 234 207 205 241 253 256 240 251 221 235 251 251 310 278 298 288 284 290
241 248 241 233 227 254 251 228 220 258 6 232 187 202 204 184 198 195 215 213 198 221 254 214 231 117 221 219 250 227 225 244 274 281 277 278 306 248 248 240 228 243 250 257 235
232 229 230 185 206 224 237 249 253 61 343 251 247 210 181 190 207 201 190 201 197 193 244 299 205 189 170 241 248 266 309 237 234 262 275 277 253 263 192 209 235 287 291 49 61
238 215 138 177 190 220 232 231 229 178 272 269 258 227 254 182 209 200 174 145 222 190 213 242 257 156 171 216 237 183 234 244 278 303 304 284 255 57 23 348 331 315 301 346 28
235 219 149 169 207 223 232 233 12 249 211 254 295 302 259 190 216 196 145 143 182 175 207 208 256 251 213 83 7 322 315 324 248 235 243 273 289 311 322 333 319 311 299 7 12
228 189 165 201 225 227 218 236 219 232 220 212 227 264 268 217 232 170 96 90 169 208 44 148 219 241 242 195 211 232 238 267 273 313 277 300 299 349 346 312 327 320 339 335 8
226 184 152 208 256 293 203 208 216 229 228 212 265 235 205 190 240 161 123 129 142 99 359 310 262 279 102 241 266 266 259 211 224 283 284 255 311 319 334 27 351 352 3 312 119
248 210 176 188 212 217 261 217 208 191 217 206 222 240 208 205 189 182 149 150 157 150 193 305 266 275 293 263 247 271 274 284 267 246 253 290 305 316 338 72 336 21 333 323 95
227 241 168 129 204 201 166 224 213 207 189 203 227 196 211 230 213 159 148 185 174 175 177 156 283 291 291 289 278 278 274 271 273 282 281 290 266 14 0 0 348 5 329 85 61
148 312 272 128 188 202 197 223 213 215 205 226 203 229 201 222 31 1 88 83 106 170 176 236 304 261 277 287 285 263 270 338 353 337 332 323 355 354 337 343 341 343 60 77 91